| time (UTC) | temp F | wind direction | speed MPH | gust MPH | rain 1hr in | rain 24hr in | rain mn in | humidity % | barometer mb |
| 20260505013042 | 68 | 51 | 7.0 | 14.0 | 0.00 | 0.00 | 0.00 | 75 | 1028.9 |
| 20260505011552 | 68 | 56 | 3.0 | 12.0 | 0.00 | 0.00 | 0.00 | 75 | 1029.1 |
| 20260505010037 | 68 | 89 | 8.0 | 16.0 | 0.00 | 0.00 | 0.00 | 72 | 1029.2 |
| 20260505004540 | 68 | 108 | 6.0 | 12.0 | 0.00 | 0.00 | 0.00 | 72 | 1029.3 |
| 20260505003035 | 67 | 61 | 8.0 | 13.0 | 0.00 | 0.00 | 0.00 | 78 | 1029.6 |
| 20260505001542 | 68 | 22 | 6.0 | 13.0 | 0.00 | 0.00 | 0.00 | 80 | 1029.8 |
| 20260505000054 | 68 | 124 | 4.0 | 10.0 | 0.00 | 0.00 | 0.00 | 80 | 1029.9 |
| 20260504234546 | 67 | 167 | 5.0 | 14.0 | 0.00 | 0.00 | 0.00 | 78 | 1030.0 |
| 20260504233055 | 67 | 52 | 5.0 | 13.0 | 0.00 | 0.00 | 0.00 | 79 | 1030.0 |
| 20260504231538 | 67 | 46 | 8.0 | 15.0 | 0.00 | 0.00 | 0.00 | 78 | 1030.2 |
| 20260504230043 | 67 | 96 | 9.0 | 17.0 | 0.00 | 0.00 | 0.00 | 79 | 1030.2 |
| 20260504224543 | 67 | 79 | 7.0 | 15.0 | 0.00 | 0.00 | 0.00 | 80 | 1030.1 |
| 20260504223054 | 68 | 15 | 4.0 | 12.0 | 0.00 | 0.00 | 0.00 | 78 | 1030.2 |
| 20260504221538 | 67 | 155 | 4.0 | 15.0 | 0.00 | 0.00 | 0.00 | 77 | 1030.3 |
| 20260504220036 | 68 | 56 | 4.0 | 10.0 | 0.00 | 0.00 | 0.00 | 75 | 1030.3 |
| 20260504214535 | 67 | 57 | 6.0 | 12.0 | 0.00 | 0.00 | 0.00 | 76 | 1030.2 |
| 20260504213053 | 66 | 68 | 8.0 | 13.0 | 0.00 | 0.00 | 0.00 | 76 | 1030.2 |
| 20260504211539 | 66 | 8 | 3.0 | 11.0 | 0.00 | 0.00 | 0.00 | 80 | 1030.5 |
| 20260504210051 | 65 | 51 | 3.0 | 6.0 | 0.00 | 0.00 | 0.00 | 81 | 1030.5 |
| 20260504204544 | 65 | 52 | 2.0 | 8.0 | 0.00 | 0.00 | 0.00 | 81 | 1030.5 |
| 20260504203058 | 65 | 67 | 5.0 | 10.0 | 0.00 | 0.00 | 0.00 | 81 | 1030.7 |
| 20260504201535 | 65 | 49 | 2.0 | 6.0 | 0.00 | 0.00 | 0.00 | 80 | 1030.7 |
| 20260504200041 | 64 | 41 | 2.0 | 6.0 | 0.00 | 0.00 | 0.00 | 80 | 1030.7 |
| 20260504194537 | 64 | 288 | 2.0 | 7.0 | 0.00 | 0.00 | 0.00 | 80 | 1030.6 |
| 20260504193037 | 64 | 95 | 2.0 | 7.0 | 0.00 | 0.00 | 0.00 | 80 | 1030.3 |
| 20260504191536 | 64 | 61 | 2.0 | 6.0 | 0.00 | 0.00 | 0.00 | 80 | 1030.2 |
| 20260504190037 | 64 | 4 | 4.0 | 9.0 | 0.00 | 0.00 | 0.00 | 80 | 1030.1 |
| 20260504184540 | 64 | 106 | 4.0 | 12.0 | 0.00 | 0.00 | 0.00 | 80 | 1030.1 |
| 20260504183037 | 64 | 49 | 4.0 | 7.0 | 0.00 | 0.00 | 0.00 | 80 | 1029.9 |
| 20260504181543 | 64 | 25 | 4.0 | 9.0 | 0.00 | 0.00 | 0.00 | 79 | 1029.9 |
| 20260504180035 | 65 | 318 | 3.0 | 12.0 | 0.00 | 0.00 | 0.00 | 79 | 1030.0 |
| 20260504174536 | 64 | 95 | 4.0 | 9.0 | 0.00 | 0.00 | 0.00 | 79 | 1029.9 |
| 20260504173036 | 65 | 25 | 4.0 | 10.0 | 0.00 | 0.00 | 0.00 | 79 | 1029.9 |
| 20260504171542 | 65 | 78 | 5.0 | 14.0 | 0.00 | 0.00 | 0.00 | 79 | 1029.9 |
| 20260504081541 | 64 | 104 | 9.0 | 20.0 | 0.00 | 0.00 | 0.00 | 80 | 1031.4 |
| 20260504044546 | 65 | 124 | 5.0 | 12.0 | 0.00 | 0.00 | 0.00 | 74 | 1030.7 |
| 20260504043039 | 66 | 134 | 5.0 | 15.0 | 0.00 | 0.00 | 0.00 | 73 | 1030.7 |
| 20260504041541 | 66 | 128 | 13.0 | 18.0 | 0.00 | 0.00 | 0.00 | 72 | 1030.6 |
| 20260504040100 | 66 | 129 | 10.0 | 16.0 | 0.00 | 0.00 | 0.00 | 72 | 1030.6 |
| 20260504034553 | 66 | 121 | 11.0 | 17.0 | 0.00 | 0.00 | 0.00 | 72 | 1030.5 |
| 20260504033046 | 66 | 137 | 8.0 | 16.0 | 0.00 | 0.00 | 0.00 | 74 | 1030.5 |
| 20260504031545 | 66 | 121 | 10.0 | 19.0 | 0.00 | 0.00 | 0.00 | 77 | 1030.4 |
| 20260504030104 | 66 | 127 | 15.0 | 20.0 | 0.00 | 0.00 | 0.00 | 75 | 1030.3 |
| 20260504024554 | 66 | 129 | 16.0 | 20.0 | 0.00 | 0.00 | 0.00 | 73 | 1030.4 |
| 20260504023046 | 67 | 121 | 6.0 | 12.0 | 0.00 | 0.00 | 0.00 | 71 | 1030.2 |
| 20260504021538 | 67 | 152 | 6.0 | 13.0 | 0.00 | 0.00 | 0.00 | 67 | 1030.5 |
| 20260504020041 | 67 | 60 | 7.0 | 13.0 | 0.00 | 0.00 | 0.00 | 64 | 1030.5 |
| 20260504014542 | 68 | 95 | 6.0 | 14.0 | 0.00 | 0.00 | 0.00 | 65 | 1030.7 |